Regional Weather Roundup
Issued by NWS

Home | Current Version | Previous Version | Graphics & Text | Print | Product List | Glossary On
Versions: 1 2 3 4 5 6 7 8 9 10 11 12 13 14 15 16 17 18 19 20 21 22 23 24 25 26 27
000
ASUS45 KBOU 221706
RWRCO

WEATHER ROUNDUP FOR COLORADO
NATIONAL WEATHER SERVICE DENVER/BOULDER CO
1100 AM MDT TUE APR 22 2014

NOTE: "FAIR" INDICATES FEW OR NO CLOUDS BELOW 12000 FEET WITH NO
SIGNIFICANT WEATHER AND/OR OBSTRUCTIONS TO VISIBILITY.

COZ001>005-013-030-031-221800-
...NORTHWEST COLORADO...

CITY           SKY/WX    TMP DP  RH WIND       PRES   REMARKS
CRAIG          CLOUDY    67  32  27 SW20G32   29.92F
HAYDEN         CLOUDY    64  32  29 SW12G18   29.98F
MEEKER         PTSUNNY   70  29  21 S20G33    29.96F
MOUNT WERNER   CLOUDY    46  19  34 S17G35    30.20R
STEAMBOAT SPGS CLOUDY    57  31  36 CALM      29.99S
WALDEN         PTSUNNY   55  25  30 S21G26    30.04F
$$

COZ006>008-011-221800-
...WEST CENTRAL VALLEYS...

CITY           SKY/WX    TMP DP  RH WIND       PRES   REMARKS
GRAND JUNCTION PTSUNNY   71  31  22 SE20      29.90F
MONTROSE       PTSUNNY   70  31  23 SW10      29.99F
EAGLE          NOT AVBL
RIFLE          PTSUNNY   60  33  36 CALM      29.97S
DELTA          NOT AVBL
NUCLA          NOT AVBL
$$

COZ017>023-064>068-221800-
...SOUTHWEST COLORADO...

CITY           SKY/WX    TMP DP  RH WIND       PRES   REMARKS
DURANGO        PTSUNNY   63  33  32 VRB7      30.13F
CORTEZ         SUNNY     70  32  24 SW10G22   30.06F
PAGOSA SPRINGS CLOUDY    57  32  39 SE3       30.19F
TELLURIDE      PTSUNNY   55  28  35 SE10G24   30.18F
WOLF CREEK PAS CLOUDY    34  30  86 SW15G31   30.36F WCI  24
$$

COZ009-010-012-014-032>034-037-058>063-221800-
...CENTRAL COLORADO...

CITY           SKY/WX    TMP DP  RH WIND       PRES   REMARKS
ASPEN          PTSUNNY   60  29  30 S21G33    30.10S
BUENA VISTA    MOSUNNY   55  32  42 CALM      30.14F
COPPER MTN     MIX PCPN  41  25  52 S15G28    30.31S
BERTHOUD PASS  FAIR      37  30  75 MISG      30.32S
COTTONWOOD PAS MOSUNNY   52  32  46 SE5       30.22F
GUNNISON       MOSUNNY   55  27  33 CALM      30.16F
KREMMLING      PTSUNNY   54  28  37 CALM      30.08F
LEADVILLE      PTSUNNY   47  24  40 MISG      30.19F
MONARCH PASS   CLOUDY    43  27  52 SW30      30.41F
SALIDA         MOSUNNY   65  32  28 S13G20    30.19F
SUNLIGHT       PTSUNNY   45  30  57 CALM      30.22S
WILKERSON PASS MOSUNNY   45  30  57 SW8       30.31S
$$

COZ069>075-221800-
...SAN LUIS VALLEY/SANGRE DE CRISTO MOUNTAINS...

CITY           SKY/WX    TMP DP  RH WIND       PRES   REMARKS
ALAMOSA        MOSUNNY   61  36  39 S14G23    30.16F
LA VETA PASS   MOSUNNY   46  32  57 SW8G16    30.27S
SAGUACHE       SUNNY     57  32  38 SE8       30.18F
$$

COZ035-036-038>040-221800-
...NORTHERN COLORADO FRONT RANGE...

CITY           SKY/WX    TMP DP  RH WIND       PRES   REMARKS
DENVER INTL AP PTSUNNY   73  30  20 S8        29.94F
DMNS CITY PARK   N/A     75  31  20 SE3       29.93F
AURORA         PTSUNNY   72  32  23 S16       29.97F
FRONT RANGE AP NOT AVBL
ERIE MUNI ARPT PTSUNNY   62  39  42 CALM      29.94F
BOULDER MUN AP PTSUNNY   61  37  41 CALM      29.94F
CENTENNIAL     PTSUNNY   72  30  21 W13       29.96F
BROOMFIELD     PTSUNNY   64  36  34 VRB3      29.97
FORT COLLINS   CLOUDY    57  37  47 CALM      29.96F
LONGMONT       NOT AVBL
$$

COZ041-046-047-076>085-087-088-221800-
...PIKES PEAK/PALMER DIVIDE AND SOUTHERN FOOTHILLS...

CITY           SKY/WX    TMP DP  RH WIND       PRES   REMARKS
COLO. SPRINGS  PTSUNNY   62  37  39 SE5       30.04F
A. F. ACADEMY  NOT AVBL
ELLICOTT       NOT AVBL
FALCON         SUNNY     63  33  33 SW10      30.08F
FORT CARSON    NOT AVBL
LIMON          SUNNY     64  42  44 S17       30.01F
MONUMENT HILL  SUNNY     68  27  21 W13G20    30.05F
TRINIDAD       SUNNY     70  42  36 SW22G38   30.06F
$$

COZ042>045-048>051-090-091-221800-
...NORTHEAST COLORADO...

CITY           SKY/WX    TMP DP  RH WIND       PRES   REMARKS
GREELEY ARPT   CLOUDY    59  37  44 NW5       29.95F
AKRON          MOSUNNY   68  42  38 S20G28    29.95F
BURLINGTON     SUNNY     68  36  30 S31G39    30.01F
WRAY           MOSUNNY   69  35  28 S21G33    29.98F
STERLING       NOT AVBL
HOLYOKE        NOT AVBL
FORT MORGAN    NOT AVBL
$$

COZ086-089-092>099-221800-
...SOUTHEAST COLORADO...

CITY           SKY/WX    TMP DP  RH WIND       PRES   REMARKS
PUEBLO         SUNNY     66  39  37 CALM      29.99F
LA JUNTA       MOSUNNY   72  43  35 W8        29.98F
LAMAR          SUNNY     77  44  30 S28       29.96F
SPRINGFIELD      N/A     70  45  40 SW28G39   30.05F
$$



USA.gov is the U.S. government's official web portal to all federal, state and local government web resources and services.